User: anonymous   Login
Location: SAPM � Hemmingford
(45.0500°N, 73.5833°W)
Time: 09:04:42
(UTC-05:00)
Language:

Cosmos 1603 - Orbit

View from above orbital plane
View from above orbital plane
View from above satellite
View from above satellite

Ground track
Ground track

The orbit data is extracted from the following two-line orbital elements,

1 15333U 84106A   17325.10796268 -.00000036  00000-0  59645-5 0  9995
2 15333  71.0259 123.7849 0021245 322.9825  36.9830 14.14068970710445
Epoch (UTC): 21 November 2017 02:35:27
Eccentricity: 0.0021245
inclination: 71.0259°
perigee height: 830 km
apogee height: 861 km
right ascension of ascending node: 123.7849°
argument of perigee: 322.9825°
revolutions per day: 14.14068970
mean anomaly at epoch: 36.9830°
orbit number at epoch: 71044

The dashed part of the orbit path shows where the satellite is in the earth's shadow,  

DLR